RUK2196 EGCC-LEXJ

Flight info

Callsign RUK2196
Flight time 1h 43m
Altitude 23000
Route KUXEM P17 BEPHE/N0440F360 DCT OSSEP DCT ELNIF DCT ZESPE DCT KLAKI DCT SALCO/N0437F350 DCT NENEM Q42 XORNA
Aircraft B738/M-SDE1E2E3FGIJ1LRWY/SB1

Departure

Time 2026-05-07 17:34
Airport Manchester Airport (EGCC)

Arrival

Time 2026-05-07 19:17
Airport Seve Ballesteros-Santander Airport (LEXJ)
Time Latitude Longitude Altitude Speed Heading
2026-05-07 17:04 53.35927 -2.26988 232 ft 0 kts 277°
2026-05-07 17:09 53.35927 -2.26994 232 ft 0 kts 275°
2026-05-07 17:23 53.35926 -2.26971 232 ft 4 kts 277°
2026-05-07 17:23 53.35923 -2.26933 232 ft 4 kts 276°
2026-05-07 17:23 53.35924 -2.26889 232 ft 4 kts 249°
2026-05-07 17:23 53.35939 -2.26857 237 ft 4 kts 207°
2026-05-07 17:24 53.35964 -2.26844 236 ft 4 kts 192°
2026-05-07 17:24 53.35987 -2.26830 235 ft 3 kts 228°
2026-05-07 17:24 53.36001 -2.26801 235 ft 2 kts 231°
2026-05-07 17:24 53.36002 -2.26799 237 ft 1 kts 231°
2026-05-07 17:26 53.35998 -2.26807 235 ft 2 kts 231°
2026-05-07 17:26 53.35983 -2.26830 236 ft 4 kts 216°
2026-05-07 17:27 53.35959 -2.26840 237 ft 4 kts 178°
2026-05-07 17:27 53.35936 -2.26819 234 ft 4 kts 128°
2026-05-07 17:27 53.35924 -2.26776 235 ft 4 kts 113°
2026-05-07 17:27 53.35911 -2.26734 237 ft 4 kts 127°
2026-05-07 17:28 53.35886 -2.26704 235 ft 5 kts 160°
2026-05-07 17:28 53.35881 -2.26701 237 ft 0 kts 166°
2026-05-07 17:28 53.35880 -2.26701 237 ft 1 kts 166°
2026-05-07 17:29 53.35857 -2.26692 238 ft 5 kts 168°
2026-05-07 17:29 53.35826 -2.26682 243 ft 4 kts 168°
2026-05-07 17:29 53.35793 -2.26671 246 ft 7 kts 169°
2026-05-07 17:29 53.35702 -2.26645 237 ft 21 kts 170°
2026-05-07 17:30 53.35550 -2.26669 232 ft 23 kts 224°
2026-05-07 17:30 53.35449 -2.26871 232 ft 22 kts 231°
2026-05-07 17:30 53.35353 -2.27069 232 ft 22 kts 231°
2026-05-07 17:30 53.35245 -2.27219 232 ft 12 kts 193°
2026-05-07 17:31 53.35167 -2.27244 232 ft 9 kts 191°
2026-05-07 17:31 53.35161 -2.27246 232 ft 1 kts 192°
2026-05-07 17:31 53.35154 -2.27248 232 ft 0 kts 192°
2026-05-07 17:31 53.35152 -2.27249 233 ft 0 kts 192°
2026-05-07 17:32 53.35150 -2.27250 232 ft 0 kts 192°
2026-05-07 17:32 53.35146 -2.27251 232 ft 1 kts 192°
2026-05-07 17:32 53.35125 -2.27259 232 ft 7 kts 192°
2026-05-07 17:32 53.35040 -2.27291 232 ft 18 kts 199°
2026-05-07 17:33 53.34933 -2.27477 232 ft 31 kts 231°
2026-05-07 17:33 53.34640 -2.28081 230 ft 102 kts 231°
2026-05-07 17:33 53.34054 -2.29279 243 ft 161 kts 229°
2026-05-07 17:33 53.33290 -2.30841 781 ft 176 kts 229°
2026-05-07 17:34 53.32525 -2.32380 1844 ft 172 kts 227°
2026-05-07 17:34 53.31924 -2.34273 2282 ft 205 kts 258°
2026-05-07 17:34 53.31945 -2.36791 2569 ft 230 kts 277°
2026-05-07 17:34 53.32254 -2.39466 3117 ft 238 kts 279°
2026-05-07 17:35 53.32562 -2.42203 3761 ft 239 kts 271°
2026-05-07 17:35 53.32367 -2.44942 4458 ft 237 kts 253°
2026-05-07 17:35 53.31893 -2.47595 4939 ft 239 kts 250°
2026-05-07 17:35 53.31375 -2.50247 5222 ft 242 kts 250°
2026-05-07 17:36 53.30842 -2.53027 5608 ft 259 kts 251°
2026-05-07 17:36 53.30295 -2.55940 6382 ft 265 kts 251°
2026-05-07 17:36 53.29742 -2.58868 7339 ft 264 kts 249°
2026-05-07 17:36 53.29018 -2.61693 8203 ft 267 kts 244°
2026-05-07 17:37 53.28115 -2.64419 9045 ft 271 kts 230°
2026-05-07 17:37 53.26703 -2.66505 9921 ft 273 kts 216°
2026-05-07 17:37 53.25121 -2.68339 10513 ft 286 kts 215°
2026-05-07 17:37 53.23400 -2.70286 10698 ft 311 kts 215°
2026-05-07 17:38 53.21554 -2.72381 11089 ft 328 kts 215°
2026-05-07 17:38 53.19651 -2.74554 11786 ft 334 kts 215°
2026-05-07 17:38 53.17734 -2.76753 12585 ft 337 kts 215°
2026-05-07 17:38 53.15793 -2.78987 13360 ft 341 kts 216°
2026-05-07 17:39 53.13833 -2.81246 14081 ft 345 kts 216°
2026-05-07 17:39 53.11848 -2.83531 14770 ft 348 kts 216°
2026-05-07 17:39 53.09830 -2.85799 15459 ft 352 kts 211°
2026-05-07 17:39 53.07540 -2.87296 16124 ft 359 kts 194°
2026-05-07 17:40 53.05042 -2.87673 16795 ft 365 kts 177°
2026-05-07 17:40 53.02513 -2.87100 17484 ft 369 kts 172°
2026-05-07 17:40 52.99971 -2.86368 18119 ft 374 kts 172°
2026-05-07 17:40 52.97431 -2.85618 18687 ft 378 kts 172°
2026-05-07 17:41 52.94832 -2.84869 19270 ft 380 kts 172°
2026-05-07 17:41 52.92211 -2.84137 19848 ft 383 kts 172°
2026-05-07 17:41 52.89569 -2.83417 20418 ft 387 kts 173°
2026-05-07 17:41 52.86897 -2.82698 20959 ft 391 kts 173°
2026-05-07 17:42 52.84205 -2.81978 21506 ft 394 kts 173°
2026-05-07 17:42 52.81490 -2.81253 22050 ft 397 kts 173°
2026-05-07 17:42 52.78746 -2.80518 22581 ft 401 kts 173°
2026-05-07 17:42 52.75987 -2.79760 23108 ft 404 kts 173°
2026-05-07 17:43 52.73203 -2.78992 23605 ft 407 kts 173°
2026-05-07 17:43 52.70400 -2.78221 24043 ft 410 kts 173°
2026-05-07 17:43 52.67576 -2.77467 24491 ft 412 kts 173°
2026-05-07 17:43 52.64737 -2.76724 24919 ft 414 kts 173°
2026-05-07 17:44 52.61884 -2.76011 25335 ft 416 kts 175°
2026-05-07 17:44 52.58991 -2.75836 25735 ft 416 kts 185°
2026-05-07 17:44 52.56099 -2.76156 26161 ft 417 kts 186°
2026-05-07 17:44 52.53197 -2.76479 26565 ft 420 kts 186°
2026-05-07 17:45 52.50269 -2.76764 26943 ft 422 kts 185°
2026-05-07 17:45 52.47330 -2.77026 27330 ft 424 kts 185°
2026-05-07 17:45 52.44371 -2.77280 27708 ft 427 kts 185°
2026-05-07 17:45 52.41398 -2.77532 28071 ft 429 kts 185°
2026-05-07 17:46 52.38407 -2.77786 28423 ft 431 kts 185°
2026-05-07 17:46 52.35404 -2.78042 28777 ft 433 kts 185°
2026-05-07 17:46 52.32385 -2.78301 29131 ft 435 kts 185°
2026-05-07 17:46 52.29351 -2.78561 29463 ft 438 kts 185°
2026-05-07 17:47 52.26305 -2.78823 29778 ft 440 kts 185°
2026-05-07 17:47 52.23241 -2.79086 30100 ft 442 kts 185°
2026-05-07 17:47 52.20168 -2.79349 30442 ft 441 kts 185°
2026-05-07 17:47 52.17109 -2.79610 30846 ft 439 kts 185°
2026-05-07 17:48 52.14065 -2.79869 31261 ft 437 kts 185°
2026-05-07 17:48 52.11032 -2.80128 31637 ft 436 kts 185°
2026-05-07 17:48 52.08000 -2.80386 31964 ft 436 kts 185°
2026-05-07 17:48 52.04970 -2.80644 32315 ft 435 kts 185°
2026-05-07 17:49 52.01950 -2.80902 32692 ft 434 kts 185°
2026-05-07 17:49 51.98940 -2.81158 33078 ft 432 kts 185°
2026-05-07 17:49 51.95938 -2.81414 33423 ft 432 kts 185°
2026-05-07 17:49 51.92941 -2.81669 33769 ft 431 kts 185°
2026-05-07 17:50 51.89947 -2.81923 34109 ft 430 kts 185°
2026-05-07 17:50 51.86964 -2.82175 34380 ft 429 kts 185°
2026-05-07 17:50 51.83984 -2.82536 34600 ft 429 kts 188°
2026-05-07 17:50 51.81018 -2.83124 34817 ft 429 kts 190°
2026-05-07 17:51 51.78063 -2.83785 35063 ft 429 kts 190°
2026-05-07 17:51 51.75109 -2.84458 35310 ft 429 kts 190°
2026-05-07 17:51 51.72152 -2.85119 35521 ft 429 kts 190°
2026-05-07 17:51 51.69193 -2.85763 35728 ft 430 kts 189°
2026-05-07 17:52 51.66227 -2.86396 35952 ft 430 kts 189°
2026-05-07 17:52 51.63263 -2.87022 36177 ft 430 kts 189°
2026-05-07 17:52 51.60299 -2.87647 36373 ft 430 kts 189°
2026-05-07 17:52 51.57333 -2.88271 36552 ft 431 kts 189°
2026-05-07 17:53 51.54360 -2.88897 36754 ft 431 kts 189°
2026-05-07 17:53 51.51395 -2.89525 36946 ft 430 kts 189°
2026-05-07 17:53 51.45424 -2.90792 37016 ft 434 kts 189°
2026-05-07 17:54 51.40458 -2.91843 37007 ft 431 kts 189°
2026-05-07 17:54 51.34532 -2.93093 37015 ft 428 kts 189°
2026-05-07 17:55 51.28651 -2.94330 37010 ft 425 kts 189°
2026-05-07 17:55 51.22801 -2.95559 37014 ft 423 kts 189°
2026-05-07 17:56 51.16965 -2.96781 37011 ft 423 kts 189°
2026-05-07 17:56 51.11129 -2.98001 37015 ft 423 kts 189°
2026-05-07 17:57 51.05277 -2.99220 37020 ft 425 kts 189°
2026-05-07 17:57 50.99398 -3.00442 37019 ft 427 kts 189°
2026-05-07 17:58 50.93495 -3.01666 37016 ft 429 kts 189°
2026-05-07 17:58 50.87570 -3.02891 37016 ft 430 kts 189°
2026-05-07 17:59 50.81618 -3.04118 37015 ft 432 kts 189°
2026-05-07 17:59 50.75643 -3.05347 37011 ft 433 kts 189°
2026-05-07 18:00 50.69668 -3.06572 37010 ft 433 kts 189°
2026-05-07 18:00 50.63699 -3.07793 37010 ft 432 kts 189°
2026-05-07 18:01 50.57745 -3.09009 37008 ft 431 kts 189°
2026-05-07 18:01 50.51809 -3.10217 37009 ft 429 kts 189°
2026-05-07 18:02 50.42943 -3.12017 37001 ft 428 kts 189°
2026-05-07 18:03 50.37114 -3.13380 36996 ft 425 kts 195°
2026-05-07 18:03 50.31555 -3.16576 37004 ft 422 kts 204°
2026-05-07 18:04 50.26171 -3.20079 37003 ft 422 kts 204°
2026-05-07 18:04 50.20738 -3.23566 36998 ft 422 kts 203°
2026-05-07 18:05 50.15290 -3.27016 36997 ft 423 kts 203°
2026-05-07 18:05 50.09788 -3.30480 36997 ft 424 kts 203°
2026-05-07 18:06 50.04349 -3.33897 36995 ft 425 kts 203°
2026-05-07 18:06 49.98860 -3.37336 36996 ft 426 kts 203°
2026-05-07 18:07 49.93358 -3.40776 36991 ft 426 kts 203°
2026-05-07 18:07 49.87849 -3.44212 36992 ft 427 kts 203°
2026-05-07 18:08 49.82331 -3.47646 36987 ft 428 kts 203°
2026-05-07 18:08 49.76806 -3.51057 36979 ft 428 kts 200°
2026-05-07 18:09 49.70965 -3.52834 36981 ft 431 kts 184°
2026-05-07 18:09 49.64966 -3.52510 36976 ft 432 kts 179°
2026-05-07 18:10 49.58967 -3.51977 36980 ft 432 kts 179°
2026-05-07 18:10 49.52969 -3.51478 36980 ft 431 kts 179°
2026-05-07 18:11 49.46978 -3.51018 36976 ft 431 kts 179°
2026-05-07 18:11 49.40988 -3.50576 36976 ft 431 kts 179°
2026-05-07 18:12 49.35004 -3.50138 36978 ft 431 kts 179°
2026-05-07 18:12 49.29016 -3.49701 36979 ft 431 kts 179°
2026-05-07 18:13 49.23028 -3.49264 36972 ft 431 kts 179°
2026-05-07 18:13 49.17037 -3.48828 36977 ft 431 kts 179°
2026-05-07 18:14 49.11051 -3.48393 36972 ft 431 kts 179°
2026-05-07 18:14 49.05060 -3.47959 36982 ft 431 kts 179°
2026-05-07 18:15 48.99063 -3.47525 36985 ft 431 kts 180°
2026-05-07 18:15 48.93068 -3.47093 36987 ft 431 kts 180°
2026-05-07 18:16 48.87069 -3.46661 36992 ft 432 kts 180°
2026-05-07 18:16 48.81070 -3.46231 36994 ft 432 kts 180°
2026-05-07 18:17 48.75063 -3.45800 36989 ft 432 kts 180°
2026-05-07 18:17 48.69057 -3.45371 36994 ft 432 kts 180°
2026-05-07 18:18 48.63048 -3.44943 36990 ft 432 kts 180°
2026-05-07 18:18 48.57035 -3.44516 36989 ft 433 kts 180°
2026-05-07 18:19 48.51024 -3.44089 36988 ft 433 kts 180°
2026-05-07 18:19 48.45007 -3.43664 36982 ft 433 kts 180°
2026-05-07 18:20 48.38981 -3.43238 36982 ft 433 kts 180°
2026-05-07 18:20 48.32956 -3.42814 36976 ft 434 kts 180°
2026-05-07 18:21 48.26929 -3.42390 36980 ft 434 kts 180°
2026-05-07 18:21 48.20934 -3.41970 36977 ft 434 kts 180°
2026-05-07 18:22 48.14899 -3.41548 36978 ft 434 kts 180°
2026-05-07 18:22 48.08867 -3.41127 36982 ft 434 kts 180°
2026-05-07 18:23 48.02838 -3.40707 36982 ft 434 kts 180°
2026-05-07 18:23 47.96801 -3.40288 36983 ft 434 kts 180°
2026-05-07 18:24 47.90768 -3.39870 36988 ft 434 kts 180°
2026-05-07 18:24 47.84732 -3.39453 36994 ft 434 kts 180°
2026-05-07 18:25 47.78694 -3.39037 36993 ft 434 kts 180°
2026-05-07 18:25 47.72658 -3.38622 36987 ft 434 kts 180°
2026-05-07 18:26 47.66621 -3.38207 36990 ft 434 kts 180°
2026-05-07 18:26 47.60579 -3.37793 36989 ft 434 kts 180°
2026-05-07 18:27 47.54539 -3.37381 36989 ft 435 kts 180°
2026-05-07 18:27 47.48496 -3.36969 36983 ft 435 kts 180°
2026-05-07 18:28 47.42448 -3.36558 36978 ft 435 kts 180°
2026-05-07 18:28 47.36435 -3.36150 36982 ft 436 kts 180°
2026-05-07 18:29 47.30337 -3.35737 36979 ft 436 kts 180°
2026-05-07 18:29 47.24318 -3.35331 36981 ft 436 kts 180°
2026-05-07 18:30 47.18250 -3.34922 36978 ft 437 kts 180°
2026-05-07 18:30 47.12179 -3.34513 36983 ft 437 kts 180°
2026-05-07 18:31 47.06104 -3.34106 36981 ft 437 kts 180°
2026-05-07 18:31 47.00021 -3.33699 36978 ft 438 kts 180°
2026-05-07 18:32 46.93938 -3.33293 36978 ft 438 kts 180°
2026-05-07 18:32 46.87848 -3.32887 36974 ft 438 kts 180°
2026-05-07 18:33 46.81757 -3.32482 36977 ft 438 kts 180°
2026-05-07 18:33 46.75669 -3.32078 36974 ft 438 kts 180°
2026-05-07 18:34 46.69572 -3.31675 36973 ft 438 kts 180°
2026-05-07 18:34 46.63480 -3.31273 36971 ft 438 kts 180°
2026-05-07 18:35 46.57390 -3.30871 36970 ft 438 kts 180°
2026-05-07 18:35 46.51299 -3.30471 36970 ft 438 kts 180°
2026-05-07 18:36 46.45204 -3.30071 36973 ft 438 kts 180°
2026-05-07 18:36 46.39114 -3.29673 36967 ft 438 kts 180°
2026-05-07 18:37 46.33023 -3.29275 36967 ft 438 kts 180°
2026-05-07 18:37 46.26933 -3.28879 36965 ft 438 kts 180°
2026-05-07 18:38 46.20840 -3.28483 36964 ft 438 kts 180°
2026-05-07 18:38 46.15776 -3.28154 36963 ft 438 kts 180°
2026-05-07 18:39 46.09685 -3.27760 36961 ft 438 kts 180°
2026-05-07 18:39 46.03590 -3.27366 36959 ft 438 kts 180°
2026-05-07 18:40 45.97496 -3.26974 36960 ft 438 kts 180°
2026-05-07 18:40 45.91404 -3.26582 36961 ft 438 kts 180°
2026-05-07 18:41 45.85307 -3.26191 36957 ft 438 kts 180°
2026-05-07 18:41 45.79257 -3.25802 36948 ft 432 kts 180°
2026-05-07 18:42 45.73282 -3.25420 36951 ft 429 kts 180°
2026-05-07 18:42 45.67356 -3.25041 36928 ft 418 kts 180°
2026-05-07 18:42 45.64498 -3.24856 36930 ft 404 kts 180°
2026-05-07 18:43 45.61725 -3.24677 36937 ft 396 kts 180°
2026-05-07 18:43 45.56197 -3.24330 36965 ft 402 kts 180°
2026-05-07 18:44 45.50545 -3.23978 36959 ft 410 kts 180°
2026-05-07 18:44 45.44825 -3.23618 36954 ft 412 kts 180°
2026-05-07 18:45 45.39083 -3.23254 36943 ft 414 kts 180°
2026-05-07 18:45 45.36200 -3.23357 36935 ft 415 kts 191°
2026-05-07 18:45 45.33341 -3.24033 36954 ft 418 kts 193°
2026-05-07 18:45 45.30474 -3.24797 36737 ft 417 kts 193°
2026-05-07 18:46 45.27653 -3.25563 36186 ft 410 kts 193°
2026-05-07 18:46 45.24857 -3.26318 35488 ft 409 kts 193°
2026-05-07 18:46 45.22060 -3.27062 34750 ft 409 kts 193°
2026-05-07 18:46 45.19275 -3.27790 34173 ft 405 kts 193°
2026-05-07 18:47 45.16523 -3.28499 33612 ft 399 kts 193°
2026-05-07 18:47 45.13845 -3.29183 33040 ft 393 kts 193°
2026-05-07 18:47 45.11137 -3.29872 32453 ft 388 kts 193°
2026-05-07 18:47 45.08511 -3.30537 32093 ft 378 kts 193°
2026-05-07 18:48 45.05944 -3.31185 31832 ft 372 kts 193°
2026-05-07 18:48 45.03392 -3.31830 31583 ft 374 kts 193°
2026-05-07 18:48 45.00819 -3.32483 31344 ft 378 kts 193°
2026-05-07 18:48 44.98257 -3.33133 31099 ft 380 kts 193°
2026-05-07 18:49 44.95665 -3.33788 30841 ft 377 kts 193°
2026-05-07 18:49 44.93097 -3.34435 30589 ft 373 kts 193°
2026-05-07 18:49 44.90549 -3.35077 30336 ft 371 kts 193°
2026-05-07 18:49 44.88017 -3.35714 30094 ft 368 kts 193°
2026-05-07 18:50 44.85506 -3.36346 29812 ft 366 kts 193°
2026-05-07 18:50 44.83016 -3.36972 29521 ft 361 kts 193°
2026-05-07 18:50 44.80563 -3.37588 29185 ft 356 kts 193°
2026-05-07 18:50 44.78144 -3.38195 28948 ft 349 kts 193°
2026-05-07 18:51 44.75785 -3.38785 28923 ft 340 kts 193°
2026-05-07 18:51 44.71252 -3.39918 28803 ft 322 kts 193°
2026-05-07 18:51 44.69063 -3.40466 28490 ft 319 kts 193°
2026-05-07 18:52 44.66866 -3.41019 27796 ft 326 kts 193°
2026-05-07 18:52 44.64560 -3.41602 26813 ft 343 kts 193°
2026-05-07 18:52 44.62232 -3.42185 26534 ft 338 kts 193°
2026-05-07 18:52 44.59918 -3.42762 26164 ft 337 kts 193°
2026-05-07 18:53 44.57619 -3.43334 25810 ft 335 kts 193°
2026-05-07 18:53 44.55333 -3.43902 25468 ft 333 kts 193°
2026-05-07 18:53 44.53059 -3.44468 25131 ft 331 kts 193°
2026-05-07 18:53 44.50798 -3.45029 24803 ft 329 kts 193°
2026-05-07 18:54 44.48552 -3.45587 24473 ft 327 kts 193°
2026-05-07 18:54 44.46318 -3.46142 24143 ft 325 kts 193°
2026-05-07 18:54 44.44095 -3.46694 23830 ft 324 kts 193°
2026-05-07 18:54 44.41882 -3.47243 23495 ft 322 kts 193°
2026-05-07 18:55 44.39679 -3.47788 23113 ft 321 kts 193°
2026-05-07 18:55 44.37487 -3.48331 22761 ft 319 kts 193°
2026-05-07 18:55 44.35316 -3.48868 22444 ft 316 kts 193°
2026-05-07 18:55 44.33160 -3.49401 22120 ft 313 kts 193°
2026-05-07 18:56 44.31025 -3.49928 21795 ft 311 kts 193°
2026-05-07 18:56 44.28906 -3.50451 21494 ft 308 kts 193°
2026-05-07 18:56 44.26802 -3.50970 21162 ft 306 kts 193°
2026-05-07 18:56 44.24712 -3.51486 20844 ft 304 kts 192°
2026-05-07 18:57 44.22636 -3.51997 20542 ft 302 kts 192°
2026-05-07 18:57 44.20574 -3.52505 20233 ft 300 kts 192°
2026-05-07 18:57 44.18525 -3.53009 19924 ft 298 kts 192°
2026-05-07 18:57 44.16512 -3.53504 19627 ft 297 kts 192°
2026-05-07 18:58 44.14484 -3.54002 19327 ft 295 kts 192°
2026-05-07 18:58 44.12466 -3.54498 19031 ft 294 kts 192°
2026-05-07 18:58 44.10455 -3.54991 18724 ft 293 kts 192°
2026-05-07 18:58 44.08455 -3.55482 18431 ft 291 kts 192°
2026-05-07 18:59 44.06461 -3.55970 18118 ft 290 kts 192°
2026-05-07 18:59 44.04475 -3.56456 17783 ft 289 kts 192°
2026-05-07 18:59 44.02497 -3.56940 17461 ft 288 kts 192°
2026-05-07 18:59 44.00532 -3.57420 17167 ft 286 kts 192°
2026-05-07 19:00 43.98582 -3.57897 16866 ft 284 kts 192°
2026-05-07 19:00 43.96644 -3.58370 16565 ft 282 kts 192°
2026-05-07 19:00 43.94719 -3.58839 16278 ft 280 kts 192°
2026-05-07 19:00 43.92804 -3.59306 15987 ft 278 kts 192°
2026-05-07 19:01 43.90902 -3.59770 15695 ft 277 kts 192°
2026-05-07 19:01 43.89009 -3.60231 15411 ft 275 kts 192°
2026-05-07 19:01 43.87119 -3.60691 15133 ft 277 kts 192°
2026-05-07 19:01 43.85210 -3.61157 14851 ft 280 kts 192°
2026-05-07 19:02 43.83268 -3.61629 14569 ft 286 kts 191°
2026-05-07 19:02 43.81292 -3.62109 14258 ft 290 kts 191°
2026-05-07 19:02 43.79312 -3.62590 13947 ft 289 kts 191°
2026-05-07 19:02 43.77337 -3.63068 13640 ft 287 kts 191°
2026-05-07 19:03 43.75364 -3.63459 13298 ft 287 kts 180°
2026-05-07 19:03 43.73446 -3.62846 13099 ft 284 kts 155°
2026-05-07 19:03 43.71911 -3.61152 12838 ft 285 kts 134°
2026-05-07 19:03 43.70649 -3.59035 12520 ft 285 kts 131°
2026-05-07 19:04 43.69426 -3.56873 12174 ft 285 kts 130°
2026-05-07 19:04 43.68208 -3.54713 11886 ft 284 kts 130°
2026-05-07 19:04 43.67015 -3.52597 11603 ft 282 kts 130°
2026-05-07 19:04 43.65809 -3.50466 11299 ft 281 kts 130°
2026-05-07 19:05 43.64606 -3.48351 11004 ft 278 kts 130°
2026-05-07 19:05 43.63418 -3.46267 10572 ft 275 kts 130°
2026-05-07 19:05 43.62229 -3.44196 10092 ft 275 kts 130°
2026-05-07 19:05 43.61037 -3.42139 9652 ft 273 kts 130°
2026-05-07 19:06 43.59852 -3.40111 9194 ft 270 kts 130°
2026-05-07 19:06 43.57504 -3.36120 8307 ft 265 kts 130°
2026-05-07 19:06 43.56344 -3.34159 7875 ft 263 kts 130°
2026-05-07 19:07 43.55191 -3.32211 7454 ft 261 kts 130°
2026-05-07 19:07 43.54064 -3.30305 7243 ft 251 kts 130°
2026-05-07 19:07 43.52998 -3.28497 7169 ft 236 kts 130°
2026-05-07 19:07 43.51924 -3.26854 7143 ft 229 kts 144°
2026-05-07 19:08 43.50416 -3.26023 6917 ft 246 kts 175°
2026-05-07 19:08 43.48673 -3.26290 6714 ft 258 kts 193°
2026-05-07 19:08 43.46916 -3.26936 6486 ft 264 kts 195°
2026-05-07 19:08 43.45123 -3.27634 6236 ft 263 kts 195°
2026-05-07 19:09 43.43395 -3.28313 5976 ft 261 kts 195°
2026-05-07 19:09 43.41659 -3.28995 5708 ft 258 kts 195°
2026-05-07 19:09 43.39940 -3.29670 5457 ft 256 kts 195°
2026-05-07 19:09 43.38234 -3.30338 5211 ft 254 kts 195°
2026-05-07 19:10 43.36547 -3.31001 4968 ft 251 kts 195°
2026-05-07 19:10 43.34869 -3.31661 4715 ft 250 kts 195°
2026-05-07 19:10 43.33201 -3.32317 4465 ft 249 kts 195°
2026-05-07 19:10 43.31545 -3.32974 4201 ft 247 kts 198°
2026-05-07 19:11 43.30094 -3.34239 4126 ft 252 kts 226°
2026-05-07 19:11 43.29290 -3.36356 4122 ft 254 kts 256°
2026-05-07 19:11 43.29347 -3.38756 4092 ft 252 kts 285°
2026-05-07 19:11 43.29974 -3.40966 4102 ft 245 kts 291°
2026-05-07 19:12 43.30657 -3.43058 4082 ft 235 kts 292°
2026-05-07 19:12 43.31324 -3.45064 4074 ft 226 kts 292°
2026-05-07 19:12 43.31962 -3.47035 3926 ft 231 kts 289°
2026-05-07 19:12 43.32456 -3.49201 3904 ft 244 kts 288°
2026-05-07 19:13 43.32873 -3.50666 4017 ft 263 kts 290°
2026-05-07 19:13 43.33708 -3.52922 3873 ft 264 kts 303°
2026-05-07 19:13 43.34748 -3.54967 3658 ft 259 kts 301°
2026-05-07 19:13 43.35714 -3.57034 3474 ft 255 kts 301°
2026-05-07 19:14 43.36589 -3.59115 3260 ft 248 kts 293°
2026-05-07 19:14 43.37239 -3.61300 2961 ft 247 kts 288°
2026-05-07 19:14 43.37805 -3.63504 2649 ft 242 kts 288°
2026-05-07 19:14 43.38365 -3.65653 2338 ft 235 kts 288°
2026-05-07 19:15 43.38910 -3.67710 2010 ft 222 kts 289°
2026-05-07 19:15 43.39425 -3.69651 1710 ft 210 kts 289°
2026-05-07 19:15 43.39910 -3.71479 1454 ft 196 kts 289°
2026-05-07 19:15 43.40357 -3.73169 1179 ft 184 kts 289°
2026-05-07 19:16 43.40784 -3.74774 935 ft 174 kts 290°
2026-05-07 19:16 43.41177 -3.76255 726 ft 158 kts 290°
2026-05-07 19:16 43.41539 -3.77616 518 ft 147 kts 291°
2026-05-07 19:16 43.41888 -3.78929 327 ft 147 kts 291°
2026-05-07 19:17 43.42241 -3.80253 140 ft 148 kts 291°
2026-05-07 19:17 43.42591 -3.81564 23 ft 136 kts 290°
2026-05-07 19:17 43.42846 -3.82513 19 ft 75 kts 290°
2026-05-07 19:17 43.42941 -3.82925 18 ft 24 kts 265°
2026-05-07 19:18 43.42845 -3.83037 18 ft 19 kts 171°
2026-05-07 19:18 43.42774 -3.82891 19 ft 19 kts 110°
2026-05-07 19:18 43.42730 -3.82724 20 ft 18 kts 110°
2026-05-07 19:18 43.42687 -3.82563 20 ft 18 kts 110°
2026-05-07 19:19 43.42645 -3.82408 19 ft 17 kts 110°
2026-05-07 19:19 43.42596 -3.82300 18 ft 8 kts 168°
2026-05-07 19:19 43.42542 -3.82320 18 ft 8 kts 199°
2026-05-07 19:19 43.42491 -3.82345 19 ft 8 kts 200°
2026-05-07 19:20 43.42447 -3.82350 18 ft 3 kts 152°
2026-05-07 19:20 43.42437 -3.82321 18 ft 3 kts 112°
2026-05-07 19:20 43.42421 -3.82294 18 ft 5 kts 139°
2026-05-07 19:20 43.42395 -3.82283 18 ft 2 kts 206°
2026-05-07 19:21 43.42385 -3.82299 19 ft 2 kts 235°